Theta_e
306 297 295 295 297 300 301 301 301 304 303 303 300 298 297 297 298 301 297 300 302 298 295 296 296 296 297 300 302 302 299 300 300 300 301 301 301 305 308 311 311 312 314 317 321 323 324 326 327 328 327 327 328 329 329 328 329 329 328 326 324 325 326 325 325 324 324 323 323 324 324 323 324 324 325 325 325 325 325 326 327 327 327 328 327 328
306 297 297 300 303 303 303 303 303 302 303 302 299 298 297 299 296 300 296 299 301 296 294 297 297 298 299 301 302 303 300 298 299 299 300 301 301 302 304 306 309 311 313 317 318 322 323 324 326 327 327 325 326 327 328 328 329 329 329 327 327 326 326 326 325 325 324 324 324 323 323 324 324 324 324 324 325 326 326 326 327 327 328 328 328 327
296 295 300 303 306 306 304 304 304 302 301 301 299 298 297 297 299 298 297 298 297 296 293 296 295 297 299 301 303 302 302 301 301 301 301 301 301 302 302 302 305 306 308 312 317 319 322 324 325 326 326 327 327 327 327 328 328 329 328 328 328 328 327 327 326 326 325 325 325 325 324 325 324 326 326 325 325 326 326 327 328 328 328 329 328 327
292 297 302 305 305 305 303 303 303 302 301 299 298 296 294 298 296 292 295 298 297 297 296 298 296 297 301 302 302 302 302 303 303 303 303 303 302 302 303 304 304 304 305 309 313 317 319 323 325 325 325 326 327 326 326 327 327 329 328 328 328 328 328 328 328 325 327 326 326 326 325 326 326 325 325 326 326 326 326 325 327 328 328 329 328 328
295 300 305 305 304 303 301 303 302 300 298 300 301 299 297 298 299 298 294 298 298 298 299 295 294 296 298 298 300 303 305 305 305 304 303 303 304 304 305 305 305 304 305 308 312 314 317 321 323 324 325 326 325 326 326 327 327 329 328 328 328 329 328 328 327 327 328 326 325 326 325 324 325 324 325 325 324 325 324 325 325 327 328 329 329 329
299 304 305 303 303 303 303 301 302 300 297 298 302 302 304 302 300 295 297 295 291 291 295 296 287 289 297 300 301 304 304 303 305 305 304 303 303 303 303 303 305 306 306 307 310 312 315 319 322 323 324 325 325 325 327 327 328 328 328 328 328 328 328 328 328 327 327 326 326 325 324 323 324 323 323 323 323 324 324 324 326 327 328 329 329 330
301 305 304 301 301 302 302 302 303 302 298 296 297 304 305 304 302 297 297 296 288 285 293 297 289 284 294 295 298 302 303 303 304 304 305 304 304 303 303 303 304 305 305 306 308 309 311 315 319 322 323 324 324 325 327 327 327 327 327 328 328 328 328 328 328 328 326 326 326 326 325 324 324 323 324 326 326 326 326 327 326 327 328 329 329 329
303 302 302 302 301 300 300 299 303 303 298 295 303 304 304 303 302 301 299 297 294 297 293 293 293 283 285 293 298 298 297 298 301 303 304 305 304 303 302 303 303 304 305 306 306 307 308 311 316 319 322 323 324 325 325 326 326 326 326 327 327 328 327 328 329 328 327 326 326 326 325 324 324 324 324 326 326 327 327 327 327 327 328 329 329 329
303 300 301 300 300 299 298 302 305 305 300 299 304 304 302 304 303 302 299 296 296 289 287 288 293 285 284 292 298 298 296 297 298 299 302 304 304 303 302 303 304 305 305 306 306 306 307 308 312 317 319 321 323 323 324 325 326 326 326 326 327 327 327 328 328 327 327 326 326 326 326 325 324 325 325 325 325 326 327 327 327 327 327 328 328 329
304 303 303 303 301 298 302 305 306 304 299 299 303 306 304 303 302 302 296 295 292 286 284 288 292 285 285 292 294 296 296 296 298 301 302 303 304 304 304 304 304 305 305 306 306 307 307 307 311 315 317 319 321 323 324 324 325 325 325 325 325 326 327 327 328 327 327 326 325 325 326 325 325 324 324 324 324 325 326 326 326 327 327 327 327 328
303 307 308 304 301 303 303 305 305 306 304 303 302 299 298 297 293 294 292 288 286 282 286 291 293 290 282 289 293 293 294 297 298 300 302 303 304 304 304 305 306 304 304 305 305 306 307 307 308 311 312 316 319 320 322 323 324 324 325 325 324 326 327 327 328 328 327 327 326 325 325 325 324 324 323 323 323 324 324 325 325 325 326 326 327 327
299 303 303 302 307 305 305 300 299 304 301 301 295 293 293 291 293 290 287 288 283 283 286 291 292 293 283 286 294 299 299 299 299 298 299 300 302 304 304 305 306 305 304 304 305 304 305 306 305 307 307 310 314 317 319 321 322 323 325 325 324 325 326 327 327 327 328 328 326 326 325 324 325 324 324 323 323 323 323 324 324 324 324 325 325 326
294 298 298 298 300 306 301 298 296 303 300 299 296 294 289 284 286 284 285 282 284 283 282 284 292 287 289 292 295 296 298 299 298 299 299 299 300 301 303 304 304 304 302 303 303 304 304 306 305 305 305 305 310 314 317 319 321 322 323 324 324 324 325 326 326 326 327 327 327 326 325 325 325 325 324 324 323 324 323 323 323 323 323 323 323 325
290 294 297 298 299 302 302 294 291 293 296 297 294 290 287 283 282 281 283 285 284 286 284 284 288 284 288 290 298 299 301 302 301 298 299 300 300 300 299 302 301 304 304 305 306 303 303 304 304 304 304 304 306 310 313 315 317 320 321 322 323 323 324 324 325 326 326 326 327 327 326 326 325 324 324 325 324 324 324 323 323 323 323 323 323 324
284 285 291 296 293 302 301 299 298 296 296 296 298 295 289 287 283 280 283 280 281 281 282 287 285 281 282 287 294 299 301 301 301 303 300 299 300 300 298 300 299 299 303 304 301 303 303 304 303 303 303 303 304 305 308 310 312 313 315 318 319 320 320 322 323 324 324 325 326 326 326 326 325 325 324 325 325 325 323 323 323 323 323 323 323 324
289 287 294 299 297 302 299 302 302 299 296 298 298 299 292 288 290 283 284 283 281 279 278 280 283 286 289 294 296 297 295 294 295 296 296 296 297 298 298 297 297 297 298 299 300 301 302 302 303 303 302 302 302 302 302 303 305 307 309 311 314 316 317 319 320 322 323 324 324 325 325 325 325 323 324 323 323 324 325 324 324 323 324 324 323 323
289 286 290 297 296 299 300 301 300 302 287 294 296 290 293 296 292 284 282 284 283 282 280 283 283 287 293 295 298 298 296 296 294 294 294 295 295 296 297 297 297 297 297 299 300 299 300 302 303 303 302 302 303 302 303 303 303 304 305 306 307 308 309 313 315 318 320 322 322 323 324 324 324 324 323 323 323 323 324 324 324 324 324 324 323 322
289 285 290 292 289 294 292 298 301 301 299 297 290 294 296 298 296 290 283 281 281 277 280 283 283 283 284 283 295 296 296 297 295 294 295 295 295 295 296 298 299 299 299 300 300 302 302 302 302 303 303 303 303 303 303 303 302 302 303 303 304 304 306 308 311 314 317 318 319 321 322 323 323 323 323 322 321 321 321 322 322 321 321 322 322 323
293 284 286 289 292 293 295 298 294 295 295 296 294 301 294 284 286 287 286 279 276 277 278 281 283 282 286 287 290 291 293 295 297 295 294 294 294 294 296 299 299 299 300 301 302 300 299 299 300 301 301 302 303 303 303 303 304 303 302 303 304 304 305 306 309 310 313 316 318 319 319 320 321 322 321 321 321 320 320 320 320 320 320 320 320 320
295 286 285 289 290 292 293 295 287 290 295 298 299 296 298 293 289 287 287 284 282 278 277 276 283 281 290 291 292 293 293 295 295 295 294 294 295 295 296 299 299 299 301 301 300 300 301 300 299 300 301 301 301 301 301 302 303 302 302 302 302 303 304 305 307 309 310 312 314 316 315 316 318 319 320 319 320 320 320 320 319 319 318 319 319 320
289 291 281 286 291 292 286 291 290 292 288 289 293 290 292 289 290 292 290 286 281 279 279 278 277 281 289 296 295 296 297 295 294 296 296 295 295 296 297 299 300 300 301 300 300 301 301 299 299 298 299 299 298 297 299 301 302 302 302 302 302 303 302 303 305 307 309 310 312 312 314 315 315 316 317 317 318 318 319 319 318 318 319 315 318 318
287 287 284 284 284 285 289 294 295 296 295 293 293 291 293 290 285 285 283 290 287 283 278 279 279 283 292 292 295 294 294 293 294 296 296 295 297 299 300 300 301 301 299 299 299 300 300 300 299 298 297 297 297 298 298 300 301 301 302 303 302 302 302 303 304 305 306 307 308 309 312 314 314 315 313 314 315 316 316 316 316 316 315 314 314 318
295 287 285 283 284 286 291 291 291 291 295 296 296 293 296 293 290 287 283 285 287 288 287 279 278 279 291 291 292 292 292 292 292 294 295 296 297 297 297 298 299 298 298 298 297 299 300 300 299 299 299 299 300 300 300 300 301 302 301 301 301 302 302 302 303 304 305 306 307 308 308 309 309 309 309 310 310 310 310 311 311 312 311 310 311 314
292 285 284 283 286 288 291 289 291 292 294 293 293 293 295 292 292 291 288 287 286 285 285 283 280 283 291 292 291 292 291 292 293 293 293 293 295 297 297 296 296 296 297 296 296 296 299 298 295 295 295 299 300 300 301 300 300 300 300 300 300 301 301 302 302 302 303 303 304 305 305 305 305 306 306 306 305 307 307 307 309 309 309 310 310 312
287 286 285 281 281 282 284 288 288 289 291 290 290 293 296 296 295 289 286 286 285 287 286 285 280 285 291 290 291 289 291 290 290 293 293 294 296 296 296 296 297 297 297 297 297 297 298 297 295 297 298 298 299 298 299 300 300 300 300 299 300 299 299 299 298 299 299 300 300 300 302 302 303 304 303 303 304 305 306 307 307 307 309 309 309 311
288 287 285 280 276 275 275 276 279 283 285 289 292 293 294 295 293 291 288 286 283 285 287 284 285 289 289 290 291 290 290 292 292 290 291 294 296 297 297 298 298 297 298 297 297 297 297 299 298 297 296 300 300 300 300 299 299 299 299 299 297 297 297 297 296 296 295 296 298 297 298 299 300 301 301 302 304 305 306 306 307 307 307 308 314 312
286 287 287 286 284 282 285 286 290 292 288 286 288 292 292 294 296 294 290 287 285 285 284 287 289 287 287 289 289 290 289 289 290 291 291 291 292 296 297 298 298 298 297 296 298 298 296 296 298 299 299 300 298 297 299 298 298 295 295 297 299 300 299 298 297 297 297 296 296 295 294 296 298 300 302 302 302 303 304 305 303 305 307 304 306 306
285 285 287 287 287 289 290 288 292 292 288 289 289 289 293 293 293 291 289 287 292 287 282 288 290 288 290 291 290 290 291 291 291 291 291 292 294 296 296 296 296 295 295 296 296 296 295 295 295 296 298 298 300 298 297 296 296 296 296 298 299 299 299 299 298 297 297 297 298 299 296 297 299 301 301 301 302 302 301 302 301 301 301 300 302 302
286 285 287 287 286 290 290 291 292 292 292 291 291 291 291 292 292 289 290 293 292 287 286 291 291 288 291 292 293 292 292 293 292 293 294 295 296 295 294 293 292 292 293 295 295 295 295 296 297 299 299 299 298 298 296 295 295 294 295 298 298 299 298 298 298 297 297 297 297 298 298 299 298 299 300 298 299 299 299 299 298 297 297 297 298 299
290 286 286 287 286 288 290 290 292 291 290 291 291 291 292 292 292 292 292 294 293 291 292 293 292 292 294 294 296 294 294 293 292 292 291 292 292 292 292 292 293 294 295 295 296 296 296 297 297 298 300 298 298 297 296 296 296 295 296 297 298 298 298 298 297 297 297 296 296 297 298 297 296 297 297 298 298 297 295 294 293 293 294 295 294 295
292 286 290 286 285 286 288 290 290 290 290 288 290 292 292 293 293 293 293 293 292 292 293 293 291 291 295 297 297 297 294 292 291 291 292 292 293 293 293 293 294 294 295 295 293 295 296 297 297 297 298 297 298 298 298 298 297 295 294 295 296 297 297 297 297 297 297 297 297 296 295 294 294 294 294 295 294 292 291 291 291 291 291 291 291 292
292 287 290 287 284 285 287 287 287 287 288 287 288 290 291 291 289 291 290 293 291 289 291 291 289 290 295 295 295 296 295 293 293 294 294 293 293 292 293 294 294 294 294 295 296 296 297 298 298 296 297 297 299 298 298 298 297 295 294 295 296 297 297 297 298 298 297 297 295 294 294 293 292 291 291 291 291 290 289 289 290 290 290 289 290 290
290 288 285 285 283 284 287 287 286 286 286 283 285 289 291 292 293 293 294 294 294 294 290 287 289 295 294 296 296 293 294 295 297 297 297 297 295 294 294 294 295 295 296 296 295 296 298 299 297 297 297 295 297 299 299 298 297 296 295 295 296 296 296 297 297 298 297 295 293 292 291 290 291 290 290 290 289 289 289 289 289 289 289 289 288 288
290 289 286 288 283 284 284 285 286 284 277 280 291 294 294 291 292 290 290 292 294 295 293 295 295 294 294 294 295 295 295 295 296 298 299 299 297 293 293 295 295 296 296 296 297 297 298 297 295 296 297 298 298 298 295 297 297 296 295 295 295 295 296 296 297 298 295 292 292 291 290 290 290 290 289 289 288 288 289 289 289 288 288 288 288 288
288 289 287 288 285 281 283 285 282 276 279 291 294 295 296 295 294 293 293 294 294 295 295 295 295 295 295 294 295 296 297 298 298 298 298 299 298 296 296 295 296 295 296 297 298 297 295 296 296 296 296 297 295 293 295 294 294 293 292 294 294 294 295 296 296 296 293 291 291 290 290 290 290 289 289 289 288 288 288 288 288 288 288 288 289 289
287 287 287 286 286 285 283 282 275 277 286 291 293 295 296 295 294 292 290 293 294 295 295 294 296 296 297 297 297 297 297 298 297 297 298 299 298 297 295 296 297 297 297 299 297 296 295 295 297 297 298 295 293 293 293 294 292 293 291 291 292 292 293 295 295 294 291 291 290 290 290 290 290 289 289 288 288 288 288 288 288 288 288 288 288 288
289 288 288 284 287 280 281 282 283 288 285 288 288 289 292 290 290 289 285 289 294 295 295 294 295 296 296 297 298 296 293 293 292 297 298 296 297 297 299 300 301 300 301 299 295 296 296 298 298 298 295 292 293 293 293 292 292 291 290 291 291 291 292 293 293 292 291 291 290 290 290 290 290 289 288 288 288 288 288 288 288 288 288 288 288 289
292 286 287 286 283 286 281 280 282 282 280 285 290 294 297 297 297 296 290 289 295 296 297 295 294 295 296 296 296 294 292 289 290 294 297 296 298 299 300 302 302 302 300 297 293 293 295 296 296 293 295 293 292 291 290 291 291 290 289 289 290 291 291 292 292 291 291 291 290 290 290 290 290 289 288 288 288 288 288 287 287 288 288 289 289 288
292 291 287 284 284 283 282 280 280 279 283 291 292 294 295 296 295 293 288 286 294 296 297 297 296 296 296 295 294 291 290 289 291 295 296 298 298 300 300 301 300 300 299 296 295 294 291 293 294 294 292 292 291 290 290 290 290 289 288 289 290 290 291 291 291 291 291 291 290 290 290 290 289 289 288 288 288 288 288 288 288 288 288 288 289 288
287 286 285 283 281 283 283 281 280 284 285 288 292 293 296 297 297 292 281 283 295 296 297 297 296 296 296 296 293 292 292 290 292 296 296 299 300 300 299 299 298 297 296 294 291 293 293 291 291 289 290 291 292 290 290 290 290 289 288 288 289 289 290 290 291 291 291 290 289 289 289 289 288 288 288 288 288 287 287 287 288 288 288 288 288 288
284 284 285 281 283 284 284 282 285 285 290 289 289 294 296 298 294 285 281 290 295 297 298 299 297 297 296 294 294 292 295 298 299 300 295 295 294 295 296 297 297 297 297 294 292 290 290 291 293 293 293 293 290 290 290 290 290 288 287 288 288 288 289 290 291 291 291 290 289 289 289 288 288 288 288 288 288 287 287 287 287 287 287 287 287 287
284 285 284 285 283 282 283 282 282 286 289 292 289 296 297 293 284 284 294 295 294 294 296 298 297 297 297 297 296 297 298 299 300 294 290 294 296 297 297 296 294 291 290 290 290 290 291 290 289 288 287 287 289 289 289 289 289 287 287 287 287 288 290 291 291 291 291 290 289 288 288 288 287 288 287 287 287 287 287 287 287 287 287 287 287 286
284 283 281 282 285 285 284 281 281 278 288 296 293 292 294 289 290 294 292 292 291 293 294 294 297 298 298 297 297 298 298 297 296 290 289 289 292 294 294 293 292 292 291 289 288 289 291 290 289 289 287 286 287 288 288 288 288 287 286 287 287 289 291 291 291 290 290 289 288 287 287 287 287 287 287 287 287 287 287 287 287 287 287 287 286 286
290 283 283 284 287 281 282 280 281 288 290 296 295 290 293 294 292 295 291 291 290 291 291 292 292 294 294 296 296 296 297 297 294 290 289 289 289 290 289 288 287 289 289 289 291 289 289 290 288 286 284 285 286 287 287 288 288 287 287 286 289 290 290 290 289 289 288 287 287 287 287 287 287 287 287 287 287 287 286 286 286 287 287 287 287 287
290 287 289 284 289 286 285 287 291 291 295 298 298 294 295 299 296 293 295 295 292 292 290 293 294 292 294 296 296 296 296 296 296 291 291 292 293 291 290 288 289 289 290 289 288 286 288 290 288 286 284 284 285 286 287 287 288 287 287 287 289 288 289 288 288 287 287 286 286 286 286 286 286 286 286 286 287 287 286 286 286 286 286 286 286 286
292 293 289 290 288 292 294 294 292 290 289 292 295 296 298 299 296 291 292 293 292 292 293 295 294 293 292 293 295 294 295 296 295 291 290 290 291 291 288 286 286 286 285 285 284 285 286 285 286 285 285 282 283 285 285 285 287 288 286 287 288 288 288 287 287 287 286 286 286 285 285 285 285 285 286 286 287 287 287 286 286 287 286 286 286 286
288 291 290 286 288 288 285 293 292 293 294 293 296 296 293 292 295 292 291 292 293 291 291 290 292 291 292 293 294 295 294 295 294 294 291 290 290 289 288 288 286 287 287 287 285 285 286 286 285 284 283 283 280 281 281 283 282 283 284 285 286 287 287 287 286 286 285 285 285 285 285 285 285 285 285 286 286 286 286 286 286 286 286 286 286 286
287 292 288 289 288 288 288 292 293 295 295 292 294 294 295 295 291 289 290 290 290 289 289 289 289 290 290 291 292 294 294 294 293 291 289 291 291 290 288 288 287 285 284 285 285 286 285 286 285 284 283 283 282 282 281 281 280 281 282 282 284 286 286 286 286 285 285 284 284 284 285 285 283 284 285 285 286 286 286 286 286 286 286 286 287 286
289 292 286 289 288 290 292 293 292 289 291 294 294 294 297 296 293 290 290 290 288 290 289 288 289 289 290 292 290 290 290 291 289 290 290 289 289 288 288 288 287 287 286 285 284 285 287 286 285 284 283 282 282 282 280 278 277 278 280 281 282 285 285 285 284 284 283 283 283 283 283 284 284 285 285 285 285 286 286 286 286 286 286 287 287 287
288 286 286 288 286 286 287 290 292 288 289 293 295 296 293 289 291 290 289 290 290 290 290 291 287 286 287 287 288 289 291 292 289 287 289 289 289 289 287 286 286 285 284 282 283 283 283 283 284 283 282 282 283 282 280 277 275 275 277 279 281 282 283 282 281 280 280 280 280 281 281 282 283 283 283 284 285 284 282 282 284 285 285 284 283 284
289 288 290 287 287 287 292 295 296 295 295 293 294 294 294 289 289 290 291 292 293 293 292 291 288 286 286 286 285 287 288 290 289 287 286 286 287 286 287 287 287 285 284 282 283 281 282 282 282 281 280 281 282 280 278 275 273 274 275 277 278 280 280 279 279 278 278 278 278 279 280 280 280 280 280 281 281 281 280 278 279 283 284 283 282 284
Wind_Speed
7 9 10 14 16 15 10 10 10 9 10 9 9 9 11 6 5 6 3 6 10 6 9 9 10 9 10 12 12 7 6 7 7 9 7 6 5 6 7 7 8 9 10 6 8 10 10 9 9 9 8 9 9 9 11 11 11 12 12 12 12 11 10 10 10 10 11 10 9 8 10 10 9 9 8 8 7 7 7 7 7 8 8 9 9 9
6 10 15 17 12 11 11 11 13 15 10 14 11 12 12 8 6 6 8 9 7 5 5 9 9 11 10 9 8 9 9 11 11 10 9 9 7 5 8 9 10 8 4 6 6 8 8 8 8 8 8 8 11 10 11 12 12 11 11 12 11 11 11 11 11 10 10 9 10 10 9 8 8 9 9 9 8 8 7 9 9 9 8 8 10 9
12 18 22 19 13 10 12 14 17 17 12 10 9 10 9 10 3 7 6 5 3 3 4 4 10 12 12 12 10 9 8 9 11 11 11 10 9 8 8 8 8 7 7 7 9 8 9 9 10 9 8 8 11 11 12 12 11 11 11 11 11 11 11 11 11 10 10 9 8 9 6 8 6 7 7 7 7 8 8 8 10 10 9 10 10 10
14 20 21 19 16 13 13 15 17 16 12 4 7 9 11 7 8 3 3 6 4 4 2 2 5 6 5 5 6 7 10 9 6 10 11 10 11 13 12 11 10 10 9 9 9 11 10 10 10 9 9 10 9 10 10 11 13 11 11 10 11 11 12 11 11 11 9 9 8 7 6 7 7 6 7 8 7 8 9 10 8 8 9 9 9 10
22 8 15 14 16 17 15 14 15 12 10 5 5 3 6 9 8 3 6 4 4 3 3 4 5 8 7 9 8 8 9 8 7 8 8 9 10 11 10 10 12 13 11 11 9 8 8 10 12 14 12 9 10 11 12 12 12 10 13 12 12 11 13 12 12 12 9 8 6 6 5 4 6 4 7 7 7 9 9 8 8 10 7 8 10 10
11 13 16 18 17 15 13 13 14 9 9 5 4 5 2 3 4 12 8 6 1 4 6 6 1 7 7 13 14 10 10 14 12 11 12 11 10 9 11 12 11 11 11 13 13 13 12 13 11 10 10 12 12 12 12 12 12 11 12 13 13 11 11 11 12 12 9 10 10 9 9 9 9 10 9 11 12 10 11 12 8 7 9 9 8 9
10 14 19 20 19 19 16 14 13 10 9 7 8 7 6 7 3 9 7 4 2 3 2 4 8 5 2 3 6 9 12 14 11 15 15 13 13 12 12 11 10 11 10 9 10 11 11 11 12 12 12 14 14 13 10 10 12 13 12 13 14 12 11 10 10 12 11 9 9 12 13 12 12 13 11 9 8 10 9 8 9 9 9 10 10 9
10 17 19 19 19 17 16 14 13 14 9 10 4 9 8 7 3 4 7 5 3 3 1 2 2 3 8 11 8 7 6 5 8 12 15 14 14 13 11 11 10 11 11 11 11 13 14 14 15 15 15 14 15 12 10 11 12 14 14 13 13 11 11 10 9 12 13 12 10 11 11 11 12 12 12 11 10 8 8 10 11 10 10 11 11 10
22 19 23 24 23 17 19 20 17 16 10 4 7 17 12 7 1 3 3 2 1 2 4 5 1 2 6 5 6 6 10 11 11 6 8 14 13 12 12 12 13 14 14 13 12 12 13 15 15 14 14 15 13 10 12 13 13 12 11 10 10 11 11 10 11 12 13 13 12 11 11 11 11 11 10 6 8 9 9 11 10 11 11 11 13 13
10 21 25 26 20 17 13 7 9 14 10 3 3 8 5 3 5 1 4 1 1 1 7 6 6 5 6 5 3 7 11 12 12 12 11 11 13 14 13 12 13 14 12 13 15 14 13 12 14 15 15 12 12 12 12 10 8 9 9 10 11 13 12 11 12 13 13 14 12 12 12 14 12 9 7 6 7 9 9 10 11 11 11 11 11 13
6 12 13 11 13 10 9 7 2 9 1 2 12 12 6 5 4 2 4 2 2 4 11 6 8 6 7 5 10 7 7 10 9 9 9 10 9 9 12 14 13 12 13 13 14 14 14 13 12 11 12 12 11 9 9 9 10 9 11 12 13 14 11 11 12 13 14 13 13 13 14 14 12 9 8 8 9 8 8 10 10 10 10 10 11 10
6 13 12 4 11 5 11 5 1 1 6 6 2 7 8 6 5 3 2 1 2 9 2 10 7 7 8 3 8 10 6 9 11 9 8 6 8 10 10 12 12 10 10 11 11 10 9 8 9 9 10 10 10 9 9 9 9 10 11 11 13 12 12 11 11 12 13 12 14 13 13 13 13 11 10 12 12 11 11 11 10 9 8 9 8 9
8 14 5 7 1 17 10 13 5 8 5 6 9 10 10 3 3 2 2 5 10 6 1 2 6 2 18 7 9 4 6 5 4 7 7 6 5 5 7 11 10 9 8 9 9 8 6 9 10 10 9 8 9 11 12 11 10 9 9 11 12 13 12 11 10 12 13 12 13 14 14 13 11 11 12 11 12 10 10 9 9 9 10 9 9 10
2 4 8 9 7 7 16 14 9 9 9 9 12 10 9 6 5 7 5 2 4 2 1 3 5 6 3 4 12 13 17 14 9 5 5 6 6 1 4 3 1 2 2 2 1 6 7 7 7 9 9 9 9 10 10 9 9 8 9 9 11 13 10 9 8 10 11 13 12 11 11 11 10 11 12 11 11 11 10 9 9 10 10 10 11 10
11 5 8 17 10 12 16 15 19 15 19 15 8 11 7 7 4 6 6 10 7 2 1 3 5 8 4 4 2 13 17 14 10 13 8 3 2 4 3 3 2 3 3 4 5 4 5 8 8 8 8 9 9 9 9 8 8 7 7 8 11 9 9 10 11 8 10 11 11 10 10 10 10 11 11 10 10 9 10 9 9 9 9 10 10 10
16 2 6 10 1 19 18 13 11 10 8 7 6 4 6 8 3 5 1 3 1 1 0 3 7 2 5 4 7 6 5 4 2 3 4 5 3 3 2 2 1 2 3 4 5 5 5 5 6 6 6 7 7 7 6 7 7 7 8 7 8 10 8 8 9 10 10 9 8 9 12 12 11 10 9 9 8 8 9 9 10 10 10 10 8 8
5 5 2 3 4 15 10 11 8 12 11 8 7 11 6 2 4 3 3 0 1 2 7 4 5 6 6 11 14 12 8 8 6 6 6 6 5 5 5 5 5 4 4 4 5 5 6 6 5 5 5 5 5 6 7 7 8 8 8 7 8 6 5 7 8 8 8 8 8 10 10 10 10 10 10 10 9 10 9 8 9 10 9 8 8 8
4 3 0 4 4 1 1 5 10 10 2 9 8 6 4 4 2 2 3 2 1 3 5 8 12 3 3 8 5 17 16 13 6 7 7 6 4 5 6 5 6 6 6 6 5 3 4 5 5 5 4 5 5 5 5 6 5 5 6 6 6 5 7 6 6 8 8 8 9 8 9 10 10 10 10 9 8 7 8 8 7 7 8 9 8 7
6 4 2 3 0 3 2 7 5 4 3 6 10 9 13 4 4 1 1 6 5 6 4 4 9 4 9 8 2 3 9 10 9 6 6 7 7 7 6 5 6 6 5 5 5 5 5 5 5 5 5 4 5 5 5 5 5 5 5 5 6 7 7 6 6 5 5 6 6 6 7 7 8 8 8 8 8 7 8 8 8 7 7 6 7 7
4 4 2 3 1 2 0 6 11 6 2 1 7 8 3 1 5 10 10 1 3 4 2 4 7 6 9 7 5 6 5 6 5 7 8 9 8 7 5 7 7 7 6 6 5 5 5 5 5 6 7 6 6 5 5 5 5 5 5 4 4 3 3 5 6 5 6 5 5 5 5 6 6 6 7 7 8 9 9 8 6 6 5 6 5 6
1 1 6 2 2 2 8 7 11 14 12 6 10 7 6 3 1 2 2 5 3 2 5 3 4 5 4 9 11 13 10 5 5 7 7 6 7 5 4 6 6 6 6 6 6 6 6 6 5 5 5 5 4 4 4 5 5 5 5 5 5 6 5 5 5 5 5 5 5 6 7 7 6 6 6 6 6 7 7 6 6 5 5 4 6 5
1 2 9 5 3 7 2 3 8 17 16 15 15 14 14 12 7 11 8 2 4 1 4 4 11 2 0 1 3 3 3 7 4 6 6 5 5 5 5 5 6 5 5 6 6 6 6 6 5 4 4 4 4 4 4 4 4 5 5 5 5 5 5 5 5 5 4 4 4 5 6 6 5 5 4 5 5 6 5 5 5 5 5 5 5 6
3 1 6 8 10 11 7 1 1 3 5 7 11 10 12 9 6 8 11 10 5 10 3 1 3 9 4 3 3 4 4 4 2 3 6 5 6 5 4 4 4 5 5 5 5 5 5 5 6 6 6 6 6 6 5 5 5 5 5 5 5 5 5 5 5 5 4 4 5 5 4 4 4 3 4 4 4 4 4 4 3 3 4 4 4 4
7 3 7 3 6 4 4 3 3 2 2 3 4 2 9 11 11 11 8 2 7 4 8 2 6 4 2 1 1 4 5 2 1 2 4 5 5 5 5 5 5 4 4 4 4 5 5 5 5 5 5 5 5 6 7 6 5 5 5 5 5 5 5 5 4 4 4 3 3 2 2 3 2 1 2 3 3 4 4 4 3 2 4 4 4 4
5 4 6 7 4 1 5 4 3 2 0 4 6 7 10 12 13 3 1 0 6 11 8 10 13 9 4 1 2 2 2 2 3 1 1 3 3 5 5 5 5 5 5 5 5 5 5 5 5 5 6 6 6 5 5 5 6 6 5 5 5 5 3 2 2 1 0 0 1 2 2 3 2 2 3 3 2 2 1 2 2 2 3 3 4 4
4 6 11 10 11 10 8 9 10 9 10 8 9 16 14 17 18 13 15 6 8 6 12 8 11 5 1 0 1 1 2 0 1 4 3 2 2 5 6 6 5 5 5 5 5 5 6 7 5 5 5 5 6 6 6 6 6 6 6 6 4 4 3 2 2 1 0 0 1 2 2 3 2 2 2 2 3 3 2 2 3 3 2 3 4 6
2 3 4 2 10 9 6 2 1 4 6 8 7 12 16 15 15 11 2 6 12 5 9 12 14 5 2 3 1 0 2 4 4 3 4 4 2 0 2 4 5 5 5 6 6 6 4 4 5 5 5 5 5 6 6 6 6 5 5 4 4 4 4 4 3 2 2 1 2 3 3 2 2 1 2 2 3 2 2 2 2 3 4 4 4 4
3 3 10 6 8 3 0 4 11 18 20 20 19 17 12 11 7 11 12 15 14 9 9 7 16 15 15 4 2 5 5 5 5 5 4 4 4 5 4 2 2 2 3 3 4 5 6 6 5 5 6 6 7 7 6 5 6 6 6 6 5 5 5 5 5 5 5 4 4 3 2 1 0 1 2 3 3 2 2 2 2 3 3 3 4 4
6 6 6 4 4 5 6 1 13 9 12 13 17 19 21 17 14 14 17 20 11 10 17 21 16 14 12 7 6 7 7 6 6 6 6 6 4 3 3 3 5 6 5 6 6 6 6 6 6 6 6 8 6 7 6 6 5 5 5 5 5 6 6 5 5 5 4 4 4 3 2 2 2 1 1 1 1 2 2 2 2 1 1 2 3 3
6 6 6 9 6 4 6 6 1 13 7 8 11 12 14 17 19 18 18 17 14 13 19 21 13 19 15 8 10 5 5 6 5 4 3 5 6 5 5 5 6 7 7 8 8 8 7 6 7 7 8 7 8 6 6 7 7 7 7 7 6 6 5 5 5 4 4 4 4 4 4 3 2 3 2 1 2 1 1 1 1 2 2 2 2 2
10 8 13 8 7 8 8 6 7 4 8 10 13 15 15 14 16 18 18 16 14 18 21 22 17 18 8 8 11 9 5 3 4 3 6 8 7 7 6 6 7 8 8 7 5 5 5 6 6 7 6 6 7 9 10 9 8 6 6 6 6 6 5 5 6 5 5 5 4 3 3 3 3 3 3 3 2 2 2 2 2 2 1 1 1 1
10 2 9 6 8 8 9 9 10 6 6 9 13 16 17 18 18 20 21 23 21 24 26 19 13 16 11 7 4 8 6 6 7 8 7 5 6 7 8 8 8 7 7 7 7 6 6 8 9 6 6 7 8 8 7 8 7 7 7 7 8 7 7 6 6 6 5 4 4 4 4 3 3 3 3 3 3 3 3 3 3 2 2 2 2 2
9 6 9 9 11 14 11 14 12 9 4 7 13 19 25 26 26 25 23 15 12 16 16 15 21 20 4 7 9 4 6 9 13 12 10 12 10 10 10 8 7 7 8 9 8 9 11 12 9 9 9 7 7 8 10 7 7 8 8 9 8 7 8 7 6 6 5 5 5 4 4 4 4 3 3 3 3 3 3 4 3 3 3 3 2 3
8 8 6 6 9 7 9 10 8 7 13 15 19 26 26 25 25 19 18 21 20 17 14 17 18 2 6 9 11 10 11 11 13 14 14 13 10 6 6 8 9 10 9 9 10 13 12 7 6 8 9 9 9 8 6 8 8 7 7 7 7 8 8 7 6 6 5 5 5 5 5 4 4 4 4 4 4 4 4 3 3 3 2 3 3 3
13 9 7 5 7 4 7 11 10 13 15 17 3 6 14 19 17 20 22 17 15 17 21 22 20 11 7 5 7 11 12 13 10 11 12 13 10 8 10 10 10 9 10 12 15 10 8 9 8 8 7 8 6 5 6 6 5 6 6 7 8 7 8 6 6 5 6 5 5 5 5 5 5 5 4 4 4 4 4 3 3 3 3 3 4 4
7 12 6 4 3 4 7 10 8 11 6 3 9 12 12 7 11 13 18 17 21 27 29 24 22 13 10 12 12 9 9 11 9 11 15 14 10 8 6 8 9 12 16 18 13 8 8 8 10 12 12 7 6 6 6 8 6 7 6 5 7 7 6 7 6 6 6 6 6 6 5 6 5 5 5 4 4 5 4 4 4 4 3 3 3 3
5 4 8 8 6 8 5 12 11 3 3 3 2 8 13 18 20 21 19 23 23 14 12 15 18 16 17 19 15 8 5 2 7 13 13 6 4 6 10 12 15 18 19 11 6 8 9 11 11 12 8 7 7 7 7 7 8 7 7 6 6 6 6 7 7 7 6 6 6 5 5 5 6 5 6 5 5 5 5 5 5 4 3 4 3 4
8 8 3 7 7 6 8 7 4 5 12 10 17 10 22 18 13 8 7 15 7 14 17 18 20 19 18 16 13 9 4 5 11 19 9 9 10 11 15 17 22 19 13 7 6 8 10 11 10 7 8 8 9 8 6 8 9 8 7 7 6 7 7 7 7 6 6 6 6 6 6 6 6 6 6 5 6 6 5 3 3 4 4 5 5 4
10 10 6 5 1 6 5 10 8 11 15 18 10 14 9 6 10 10 3 18 13 17 20 22 24 21 16 15 10 8 7 11 18 19 9 16 15 18 21 23 17 13 13 9 8 9 8 9 10 10 8 8 8 7 7 9 10 9 8 8 7 7 7 7 6 7 7 6 6 6 6 6 5 6 6 6 5 5 7 6 5 3 4 3 4 4
11 7 6 9 3 3 5 8 11 5 11 3 12 12 13 13 14 11 8 15 21 19 17 19 23 21 16 13 10 13 16 17 22 13 14 19 21 21 20 17 15 14 13 10 7 9 10 7 6 5 7 9 11 9 10 10 10 8 8 8 7 8 8 7 6 6 6 6 6 6 6 6 6 5 6 6 5 4 4 4 5 4 4 3 3 3
8 5 8 12 9 8 10 4 3 6 6 3 4 14 16 16 14 13 13 26 2 19 19 21 21 14 11 11 12 14 18 22 22 19 11 10 9 11 13 15 15 15 14 9 9 6 6 8 12 13 15 14 10 10 9 10 9 8 7 9 8 9 7 6 7 7 7 7 7 6 6 6 6 6 5 4 5 4 4 4 4 4 4 4 4 4
7 5 1 7 9 9 7 9 9 8 6 7 2 13 16 13 11 16 22 2 7 9 13 16 17 14 15 18 17 20 22 24 27 8 8 13 15 17 16 14 10 7 4 6 9 9 7 8 8 7 5 4 9 9 9 10 10 8 9 8 9 8 7 8 7 7 8 8 7 6 6 6 5 5 6 5 6 6 4 3 4 4 4 4 4 5
10 8 6 7 3 0 3 6 4 11 5 15 12 10 12 14 19 10 3 1 2 6 10 10 14 15 16 16 16 18 18 14 12 2 4 7 11 12 13 10 9 10 8 4 4 7 10 8 9 9 7 5 7 8 8 10 10 8 8 9 8 8 8 8 8 8 8 7 7 7 7 6 7 7 6 6 6 7 6 5 5 4 5 5 5 5
9 8 5 5 5 6 6 10 10 12 0 14 21 17 18 7 2 4 1 0 1 3 4 5 6 7 7 11 13 15 16 17 8 6 7 7 8 9 6 5 6 8 7 7 8 10 9 9 6 6 5 5 6 7 8 10 10 8 9 8 8 9 9 9 8 8 8 7 7 6 6 5 5 5 5 6 6 6 7 6 5 5 4 5 5 5
9 8 9 9 8 8 8 9 12 1 11 16 15 4 5 12 8 3 6 6 5 5 2 7 7 7 9 11 11 13 14 14 15 9 9 11 11 10 8 8 10 10 10 10 8 6 7 11 12 9 6 5 7 7 8 8 11 10 11 9 10 10 10 10 9 8 8 7 6 6 5 5 4 4 4 4 6 6 5 5 5 5 3 4 4 4
12 16 5 7 8 10 12 15 5 4 6 4 5 6 14 19 9 2 1 1 2 1 6 7 8 8 8 8 10 10 12 13 13 7 9 8 11 11 5 3 3 4 4 4 4 6 6 5 7 9 9 5 4 6 6 6 8 12 8 8 9 9 9 10 10 8 8 7 6 7 7 7 5 4 4 4 3 4 4 6 6 5 5 4 4 4
3 8 7 6 3 9 11 15 19 17 12 8 12 9 6 3 6 6 3 0 1 1 4 4 1 4 7 7 10 12 12 13 12 10 8 8 9 9 8 9 7 9 10 10 7 8 7 8 8 8 8 7 3 4 3 5 3 4 7 8 8 8 9 9 9 9 8 8 7 7 7 7 6 5 4 4 4 3 4 4 4 4 4 5 5 5
9 7 8 9 9 13 15 18 19 21 10 3 8 7 13 11 6 5 4 2 1 1 3 6 3 2 3 5 9 10 13 10 9 8 7 10 12 11 9 8 9 6 5 5 8 8 7 9 10 10 10 9 6 5 5 5 5 6 7 7 8 9 10 10 9 9 9 9 7 6 7 6 8 7 5 5 5 5 4 3 4 4 5 6 5 5
6 13 8 7 10 11 18 20 11 3 5 14 15 13 12 6 5 3 3 4 5 6 7 4 5 7 6 8 6 6 7 8 6 7 8 7 7 7 9 10 8 8 8 8 8 9 12 11 11 10 10 8 5 5 5 5 5 5 7 7 8 10 11 10 10 8 8 7 7 6 5 5 6 5 6 5 4 3 4 5 5 3 3 3 4 4
4 8 3 6 10 12 15 18 12 11 14 16 18 16 7 1 3 4 3 6 7 7 9 10 5 1 1 2 4 5 8 9 6 5 7 8 9 8 6 6 6 7 5 4 5 5 5 6 9 11 9 8 7 6 7 5 4 4 5 6 7 9 11 10 9 9 7 7 6 6 6 5 5 5 5 5 5 5 3 5 3 3 4 3 2 4
11 8 10 12 10 16 24 25 12 15 17 1 6 8 10 6 4 5 8 10 11 11 9 8 7 5 5 5 3 4 6 8 6 4 5 6 6 6 7 9 9 7 7 7 8 5 5 5 7 8 9 8 8 7 7 6 4 4 4 4 5 7 9 9 9 8 7 7 6 6 6 6 5 5 5 5 5 5 5 2 0 4 5 5 3 3
Wind_Direction
147 164 184 196 201 205 212 226 231 235 189 185 173 178 219 214 201 204 97 163 183 171 208 207 224 228 230 229 237 210 193 204 200 202 215 225 219 185 179 190 200 201 206 185 180 181 190 185 182 182 176 178 181 181 182 183 184 185 183 174 185 187 181 185 183 185 185 187 190 192 193 192 187 189 186 194 192 188 192 190 192 190 188 182 185 189
160 183 211 208 190 189 207 222 240 250 223 188 177 184 206 214 224 175 155 149 197 166 211 218 238 242 242 241 231 226 187 207 204 202 203 210 218 196 188 198 203 209 196 170 179 181 182 182 181 178 181 173 179 188 182 188 189 185 184 183 179 184 189 191 193 187 190 191 194 191 195 188 186 188 190 194 195 194 188 193 192 192 190 185 186 189
184 201 206 197 178 192 197 213 230 234 239 202 180 181 198 211 152 54 121 153 151 161 261 213 216 232 233 239 240 238 236 213 204 200 202 200 201 208 208 205 199 193 200 188 191 183 181 182 180 180 185 184 185 183 188 189 187 189 188 185 178 184 191 196 194 189 193 192 195 193 190 188 195 199 197 198 194 191 195 197 197 193 190 191 190 187
196 219 201 181 174 191 211 214 220 235 242 232 181 181 200 184 190 186 164 165 163 171 203 226 281 265 271 263 248 226 225 236 216 202 205 196 198 204 207 202 199 200 193 194 188 188 187 180 181 182 188 189 181 185 191 190 191 191 193 187 183 183 190 195 196 195 190 191 194 195 185 194 196 192 190 194 190 184 192 206 197 196 195 196 194 188
206 198 168 159 177 190 204 213 222 224 231 232 205 206 185 192 203 177 161 168 139 255 304 303 295 271 224 245 252 254 249 250 234 235 223 207 208 207 207 205 199 199 195 194 194 192 182 179 186 189 190 179 187 192 193 192 190 193 192 190 188 189 191 193 193 191 182 176 181 187 199 191 201 203 187 184 194 191 196 199 206 206 196 199 200 195
206 119 146 172 181 193 201 213 220 201 219 224 237 196 273 203 167 105 138 152 136 243 209 159 310 264 212 220 229 228 224 229 229 232 227 219 217 211 211 209 205 206 195 192 193 193 189 189 191 188 181 187 196 198 198 193 193 191 192 191 192 194 195 193 190 189 179 178 180 180 187 195 195 204 195 198 197 192 195 203 200 204 206 210 207 202
178 152 162 174 182 185 194 209 213 198 210 196 213 187 226 267 167 139 148 129 212 235 198 184 197 273 327 276 226 226 226 227 219 218 223 219 220 216 215 209 206 202 203 197 193 192 190 190 186 191 189 194 197 204 192 190 196 197 195 195 194 193 194 191 185 184 188 188 186 189 195 197 198 203 211 206 198 195 200 192 198 203 205 212 214 214
156 161 161 180 184 185 184 201 204 199 196 218 139 172 214 235 156 168 146 164 228 76 38 281 181 244 279 250 257 276 293 266 226 214 216 219 220 218 216 213 215 213 206 199 195 190 192 188 187 191 195 196 201 196 183 196 197 198 198 195 196 195 193 192 183 182 188 195 194 194 199 204 210 210 212 202 204 196 186 193 199 198 202 204 210 215
162 165 170 175 184 188 196 191 176 191 197 223 173 175 200 223 129 101 95 154 201 59 259 218 198 300 233 261 181 238 261 258 264 251 216 217 219 218 218 215 214 216 214 207 205 199 190 190 191 190 193 200 198 182 190 197 197 197 196 195 195 198 195 192 186 183 189 195 199 200 201 208 217 216 218 202 198 202 192 195 197 198 200 201 203 208
175 171 179 175 180 194 190 144 158 180 192 286 40 96 83 58 30 1 135 155 286 113 244 192 171 226 261 237 253 199 218 232 230 232 235 221 214 216 220 221 216 215 215 212 211 210 205 193 190 190 191 191 189 191 192 190 186 190 191 194 194 202 198 194 190 188 189 194 196 202 207 212 214 212 216 203 206 203 197 202 198 199 199 201 202 205
153 173 169 180 186 182 145 129 112 187 208 182 89 88 67 76 86 11 44 68 47 259 240 187 200 179 293 216 208 196 214 209 217 229 235 237 234 220 217 219 217 210 208 210 212 210 207 202 190 182 182 186 185 182 178 180 186 188 191 197 199 205 199 196 195 191 194 193 196 206 210 214 216 207 204 206 216 209 203 209 207 200 200 198 203 201
150 157 166 201 168 128 106 104 9 155 170 125 123 121 108 85 53 50 8 26 175 253 144 187 198 180 233 253 233 209 201 197 198 216 223 233 233 229 222 219 217 212 207 210 209 213 204 191 194 178 181 175 176 169 175 184 185 189 194 193 201 204 201 198 198 195 200 194 201 208 209 212 214 206 205 209 212 207 208 207 210 210 207 208 203 198
163 170 126 140 273 144 151 145 202 156 209 116 127 142 131 154 120 197 143 209 213 235 263 340 177 221 239 228 286 283 276 275 204 194 206 223 255 256 232 206 204 206 202 199 199 199 189 181 177 177 175 164 165 177 183 185 185 187 189 193 197 206 201 198 194 200 201 200 203 205 208 213 210 210 212 211 214 210 211 206 205 201 210 208 209 209
209 353 170 154 138 178 153 159 154 169 190 162 169 165 159 144 175 203 182 256 301 230 210 107 38 272 309 280 223 254 263 250 246 231 225 232 235 285 44 17 27 50 73 58 177 187 176 170 170 172 169 172 175 180 181 181 180 185 190 194 199 209 196 198 196 200 201 207 211 205 207 213 210 215 214 215 213 211 213 209 209 206 207 208 213 208
140 185 224 158 189 159 177 174 174 174 174 189 174 177 172 160 163 186 172 200 203 186 147 188 87 232 150 258 191 221 244 262 251 237 238 223 166 127 151 110 93 93 103 115 97 109 155 166 167 170 173 177 181 178 179 179 185 180 191 196 205 205 197 196 203 201 205 210 212 214 212 211 211 216 217 219 215 209 209 209 211 210 209 212 213 212
184 115 175 179 324 170 179 168 164 145 156 190 169 126 186 207 151 175 157 181 152 115 271 227 199 239 186 289 284 259 254 242 196 204 186 247 223 149 146 166 177 186 162 145 142 158 172 181 180 177 182 186 188 183 169 173 174 183 195 198 207 206 200 198 199 204 208 211 207 210 215 217 215 216 219 224 220 218 210 210 211 212 210 212 207 206
168 202 284 170 344 169 170 149 174 150 176 171 160 201 180 1 98 106 30 154 59 29 254 174 292 284 298 287 272 282 269 248 225 224 215 234 221 174 202 203 186 176 164 164 181 186 191 183 180 174 167 157 150 155 169 176 177 182 187 193 206 206 198 202 203 203 205 208 207 216 216 217 218 217 216 219 221 221 219 214 213 213 212 207 202 195
202 123 157 182 170 295 45 150 161 170 96 147 194 189 100 56 69 127 185 85 180 216 255 159 225 225 151 279 224 215 231 243 218 213 205 223 208 206 220 198 181 175 190 196 187 169 160 151 143 128 126 139 148 150 152 166 168 174 176 183 189 194 202 210 199 205 204 205 212 215 217 219 219 220 222 218 218 213 213 220 218 210 207 209 202 196
124 103 278 306 157 346 339 102 42 18 357 180 178 151 157 196 187 198 156 216 171 215 254 235 217 223 196 223 357 186 210 239 230 204 191 212 207 210 209 189 177 181 177 175 148 127 121 132 142 143 146 140 139 151 160 157 153 153 165 179 181 197 204 203 207 206 210 206 210 211 216 215 220 221 222 221 216 212 217 220 219 216 213 204 198 193
282 153 115 322 56 238 30 165 177 161 335 76 100 172 214 94 203 170 193 29 130 249 270 278 172 245 199 216 204 262 211 216 209 195 199 201 193 188 188 170 178 182 177 158 145 145 148 148 152 155 157 154 150 142 137 132 137 155 167 164 179 189 191 196 202 204 210 213 204 216 217 224 219 218 218 215 212 217 222 223 220 222 219 210 189 194
294 84 162 195 316 204 192 198 182 170 164 154 171 182 192 202 262 129 210 197 159 195 225 300 287 270 243 186 193 218 223 224 205 201 200 185 168 155 150 162 174 172 159 153 148 147 146 147 143 141 131 131 118 115 133 153 166 174 170 173 182 185 199 203 209 196 207 201 211 210 215 217 219 225 217 217 214 216 219 221 219 222 223 201 205 185
87 323 163 134 182 219 210 188 203 189 178 176 180 191 181 166 138 174 216 194 231 132 218 213 253 276 287 338 170 163 135 95 59 99 86 100 102 102 102 106 130 133 146 143 143 146 153 150 146 139 127 133 142 157 170 185 160 161 170 179 179 184 192 197 213 206 212 212 215 216 217 217 218 221 224 223 226 225 219 216 213 211 210 208 205 186
131 94 115 174 193 188 196 274 305 9 220 208 192 189 179 174 160 177 198 202 191 223 259 142 309 272 254 342 35 96 105 101 69 86 109 104 109 117 132 129 115 135 147 149 150 153 154 152 154 159 165 174 176 176 173 174 177 180 180 174 179 174 201 190 197 198 203 211 220 232 232 224 223 220 229 235 243 239 232 229 225 206 193 195 190 191
79 96 127 47 44 7 349 301 319 291 110 178 220 147 175 192 188 200 204 178 192 181 216 213 255 250 325 321 343 104 122 127 95 60 120 124 131 138 141 145 143 128 139 145 148 149 156 153 151 148 163 171 177 174 181 181 181 177 172 176 178 188 198 196 193 192 195 209 231 247 252 254 254 247 260 250 245 234 226 213 207 179 183 190 180 186
126 235 130 129 96 18 356 353 285 326 289 199 181 196 193 191 199 202 105 215 186 206 191 190 229 241 256 12 313 68 92 123 157 189 156 149 153 143 151 149 149 155 161 170 176 178 166 156 172 189 184 186 189 188 181 180 182 178 181 177 184 188 191 118 65 62 33 43 256 271 230 224 212 217 240 247 255 242 226 209 207 180 190 189 195 200
62 156 152 161 161 166 186 202 187 199 210 192 199 195 200 192 190 186 211 169 220 208 194 201 243 223 310 275 144 57 95 62 184 174 220 202 186 158 148 150 150 160 174 175 176 167 184 191 190 177 185 183 181 181 179 184 185 184 181 184 172 168 158 112 75 52 30 24 196 254 243 228 216 233 250 264 276 261 231 217 209 206 217 208 221 208
137 186 217 216 189 183 226 220 351 107 112 178 176 193 201 208 197 201 185 216 217 190 200 222 235 235 260 225 115 215 202 178 201 187 188 221 258 173 141 142 158 173 175 177 179 181 158 156 172 190 181 184 179 182 183 185 186 184 177 167 159 164 157 144 132 161 193 228 216 242 251 241 227 228 257 255 256 264 243 217 224 211 216 208 211 209
95 170 215 220 259 277 304 156 139 156 177 190 184 191 192 191 181 190 198 216 207 207 248 233 231 234 228 225 191 190 222 181 180 200 219 213 198 186 203 183 190 221 219 188 180 173 184 201 198 190 192 184 188 184 186 185 184 180 178 181 173 164 165 155 166 177 184 191 209 216 249 262 55 266 250 251 245 228 223 218 217 224 223 196 203 202
153 196 183 201 268 277 290 337 154 171 195 189 186 182 188 186 189 199 211 222 201 204 224 226 220 231 237 184 224 203 186 177 177 183 183 172 158 144 150 169 196 215 220 200 208 199 195 197 193 193 193 197 185 188 186 184 187 176 170 171 174 169 184 171 171 177 173 181 192 192 199 198 180 213 228 197 191 188 202 200 197 183 178 194 208 208
129 213 162 181 237 268 281 323 340 171 176 180 192 197 190 186 197 204 217 219 212 224 230 239 226 234 230 174 209 220 182 154 175 148 139 142 174 190 188 198 210 212 209 209 205 202 198 196 195 203 201 197 192 189 190 195 196 192 182 180 173 173 184 167 178 166 170 178 187 185 177 157 156 189 194 181 187 194 153 144 139 149 170 190 193 185
171 212 166 161 201 239 256 268 305 291 176 189 193 195 194 193 203 212 218 218 212 236 243 240 234 246 230 179 200 205 154 130 113 187 204 198 177 172 188 201 211 215 219 222 210 198 201 206 214 212 202 196 193 198 197 200 196 181 177 177 180 184 176 167 171 177 177 183 185 163 145 160 178 160 172 168 148 136 143 138 121 122 120 107 110 133
184 246 143 150 192 224 212 211 224 262 272 210 197 191 190 193 202 209 214 209 198 213 227 238 249 249 227 173 191 212 204 169 200 223 241 239 197 188 197 204 210 221 222 216 206 193 193 208 216 204 204 214 212 204 200 198 186 174 183 174 184 177 167 175 182 179 178 170 152 143 157 163 150 153 152 137 141 132 125 118 121 124 127 124 129 129
185 165 160 169 195 226 195 189 192 198 243 251 217 197 196 200 205 208 219 216 214 219 227 221 229 230 113 171 215 177 185 221 233 243 253 249 230 205 202 204 201 211 218 215 209 203 204 208 200 190 205 213 219 210 212 182 166 187 180 181 178 156 166 179 184 173 167 162 150 158 153 150 151 146 136 131 132 136 131 136 135 139 146 162 156 134
177 169 169 169 201 225 142 155 152 178 216 223 210 202 198 202 202 206 215 213 211 212 229 228 239 178 170 204 193 194 208 208 211 220 219 222 225 210 215 210 207 206 212 218 215 211 210 202 199 198 194 205 216 215 194 174 179 184 172 161 153 161 168 173 178 169 158 150 157 159 155 152 145 142 142 139 140 140 139 139 149 145 133 127 127 140
182 183 182 171 198 208 144 134 172 208 221 237 127 180 212 212 203 210 223 214 213 218 233 237 239 211 205 181 193 207 213 222 220 225 229 225 214 190 195 208 212 215 219 223 224 213 201 198 190 191 207 219 204 181 157 155 145 138 136 151 158 165 164 172 163 164 151 155 159 150 152 154 151 149 148 144 140 134 136 136 128 128 139 145 154 156
199 179 164 188 153 97 169 167 184 223 237 50 145 180 196 204 219 218 237 227 213 214 217 226 235 228 224 232 228 224 219 227 235 235 230 224 206 202 196 203 213 216 223 225 221 202 196 186 189 192 206 195 149 188 181 156 141 139 152 146 156 159 163 162 162 160 153 160 165 164 166 158 153 147 142 142 140 138 144 146 149 145 152 131 125 126
244 251 192 181 183 180 182 182 203 66 59 190 196 184 152 196 203 197 216 228 221 219 221 234 236 225 224 232 229 234 244 260 260 255 236 201 190 207 214 230 225 225 227 225 167 197 196 197 196 202 183 159 173 178 191 150 140 140 143 151 158 159 161 161 166 169 166 167 164 164 164 158 152 152 154 155 149 151 154 154 152 152 145 128 143 154
197 201 279 209 207 180 165 185 221 245 246 223 211 180 192 204 200 203 224 269 150 203 213 223 229 223 222 228 225 215 158 201 251 250 214 153 194 216 229 232 233 235 242 235 193 191 195 199 198 180 164 167 180 193 168 149 142 143 152 159 158 162 168 172 178 166 165 166 163 163 163 162 159 160 160 161 167 161 155 151 153 159 161 153 157 160
208 208 213 247 297 158 162 197 198 208 230 234 200 184 192 162 107 94 104 258 218 200 204 214 229 224 213 215 207 143 148 218 240 244 138 171 199 211 223 231 235 238 237 217 200 206 194 193 180 178 171 167 178 187 169 148 142 149 167 165 166 169 172 184 172 167 166 165 164 162 162 161 160 161 163 167 175 167 161 168 168 155 140 138 135 143
207 209 166 217 224 252 188 189 212 196 237 222 141 177 164 125 123 109 193 256 237 182 203 207 224 223 211 208 170 179 192 221 236 234 162 188 205 211 219 229 230 235 240 222 214 201 192 163 121 133 165 176 198 173 163 149 150 169 167 165 161 171 186 182 174 160 155 155 155 153 155 158 160 164 168 169 160 164 160 145 136 143 132 123 123 126
196 197 204 209 200 203 207 253 321 278 257 231 198 148 146 136 131 172 201 237 178 157 200 204 221 211 196 197 174 206 212 220 230 232 190 197 213 227 230 227 223 222 228 224 215 172 151 174 177 181 188 197 174 159 158 147 150 173 168 158 164 187 180 164 153 149 148 145 145 151 157 159 162 163 165 161 158 146 138 140 140 136 133 127 115 110
191 174 206 209 207 198 186 207 230 261 243 131 157 149 140 139 187 200 222 205 129 178 188 193 207 199 193 200 198 212 218 217 229 221 140 184 198 219 222 224 225 239 235 218 182 165 176 180 194 193 188 149 153 158 151 149 165 169 160 160 181 178 158 152 148 142 142 145 150 153 153 154 152 149 147 140 136 136 131 121 127 133 129 123 124 127
180 177 196 197 177 127 195 205 223 248 234 151 146 163 172 172 211 207 70 103 154 190 182 198 198 208 200 213 212 222 235 239 239 120 194 184 205 219 226 220 202 201 193 160 177 199 170 178 188 190 174 148 147 152 153 155 164 167 162 171 172 155 155 147 146 145 145 145 148 154 156 157 155 153 151 150 151 145 141 140 136 139 136 131 131 132
160 194 172 196 187 185 179 197 209 229 326 147 151 188 201 192 98 152 102 205 280 136 155 197 223 214 183 203 213 224 233 239 234 167 201 212 225 234 238 209 187 194 198 205 191 184 173 177 169 151 145 146 143 149 157 164 162 164 166 173 154 151 145 147 146 143 143 147 149 147 147 147 144 141 147 149 145 143 142 148 147 145 149 145 145 147
170 200 167 192 182 197 207 222 231 175 159 181 183 147 175 245 239 184 196 185 149 239 169 162 213 217 207 202 212 215 232 234 234 191 185 215 226 228 215 190 184 185 193 189 190 174 170 175 171 153 142 151 151 157 164 171 162 163 171 171 152 155 151 148 145 143 144 143 142 138 131 125 129 135 139 145 148 147 148 143 148 142 149 146 151 157
175 196 181 188 208 208 236 235 249 293 296 277 248 198 195 217 217 65 27 126 279 198 186 184 208 207 216 207 202 226 225 233 233 201 207 215 224 234 215 170 184 183 161 142 137 166 168 141 139 148 152 160 173 168 172 170 166 166 172 149 153 148 144 140 139 138 138 135 132 132 132 127 123 123 131 138 140 141 149 156 161 155 153 160 166 169
277 195 184 197 135 165 243 236 237 234 226 220 221 239 268 267 225 223 236 162 196 160 204 270 232 217 215 206 205 218 227 229 230 220 200 212 224 227 211 198 192 181 178 182 181 144 143 147 149 157 154 156 160 151 144 137 125 122 133 148 144 140 136 134 133 132 134 135 132 134 138 138 140 135 134 135 128 127 133 139 151 149 155 170 175 177
234 188 207 203 187 192 233 231 231 235 229 238 236 240 243 238 230 223 202 186 173 225 213 221 192 225 198 231 227 219 230 230 225 223 191 203 210 216 211 202 194 182 195 167 157 159 145 158 163 163 162 162 163 152 146 130 123 131 132 136 138 136 133 132 141 144 144 140 141 144 151 146 147 145 147 153 150 147 146 156 173 171 177 181 184 182
183 155 210 181 217 224 241 244 236 315 201 225 235 233 231 220 204 206 214 233 255 260 261 242 186 200 178 217 204 221 251 260 227 212 205 211 218 212 208 204 188 179 160 159 175 170 171 165 163 165 159 152 150 138 123 110 108 125 135 141 140 139 137 139 140 139 136 137 137 145 147 142 149 151 147 151 151 150 148 164 181 182 191 202 194 194
141 205 140 172 226 232 232 237 202 231 238 228 222 217 236 273 161 193 231 256 253 254 253 250 262 331 275 227 204 199 217 238 228 191 207 210 207 210 199 177 165 160 166 147 142 152 141 155 153 153 147 140 137 129 120 113 110 119 139 140 139 137 138 139 135 133 136 136 137 140 138 135 145 141 143 152 155 136 80 31 92 151 167 177 98 126
202 184 172 206 201 231 234 235 207 226 246 149 154 180 202 210 167 198 219 229 239 236 240 242 244 258 255 266 258 203 230 238 244 175 198 203 221 202 176 166 164 164 151 142 135 138 142 141 137 129 128 133 130 127 125 117 119 121 123 124 127 133 135 137 132 129 130 132 136 144 134 136 143 139 141 154 151 144 143 137 359 49 76 97 96 98